Location: Newark
(44.6028°N, 124.0883°W)
Time: 00:49:50
(UTC+00:00)

Vanguard 2 Rocket - Visible Passes

Search period start: 23 October 2019 00:00
Search period end: 02 November 2019 00:00
Orbit: 553 x 3327 km, 32.9° (Epoch: 21 October)

Date Brightness Start Highest point End Pass type
(mag) Time Alt. Az. Time Alt. Az. Time Alt. Az.
23 Oct 10.9 13:32:21 10° SSE 13:39:59 16° SE 13:48:59 10° E visible
25 Oct 10.6 13:42:52 10° S 13:52:33 23° SE 14:05:03 10° E visible
26 Oct 10.7 12:46:59 10° SSE 12:52:49 14° SE 12:59:43 10° ESE visible
27 Oct 10.3 13:54:48 10° SSW 14:05:18 30° SE 14:19:53 10° E visible
28 Oct 10.3 12:57:24 10° S 13:05:25 21° SE 13:16:04 10° E visible
29 Oct 10.4 12:02:30 10° SE 12:06:01 12° SE 12:09:59 10° ESE visible
29 Oct 10.1 14:07:29 10° SSW 14:18:16 37° SSE 14:34:07 10° E visible
30 Oct 10.0 13:09:24 10° SSW 13:18:13 27° SE 13:30:56 10° E visible
31 Oct 10.0 12:12:22 10° S 12:18:41 18° SE 12:27:01 10° E visible
31 Oct 9.9 14:20:38 10° SW 14:31:27 43° SSE 14:48:04 10° E visible
01 Nov 9.8 13:22:09 10° SSW 13:31:15 34° SSE 13:45:12 10° E visible
